Kremmling, CO

10:37 PM MST on December 15, 2019 (GMT -0700)
Kremmling

Weather History for K20V - October, 2019

Change the Weather History Date:

Sunday, October 20, 2019

  Actual Average Record
Temperature  
Mean Temperature 34 °F -  
Max Temperature 42 °F - 75 °F (2003)
Min Temperature 26 °F - 18 °F (2016)
Degree Days  
Heating Degree Days 31    
Month to date heating degree days 479  
Cooling Degree Days 0    
Month to date cooling degree days 0  
Moisture  
Dew Point 21 °F    
Average Humidity 69    
Maximum Humidity 86    
Minimum Humidity 39    
Precipitation  
Precipitation 0.00 in - 0.04 in (2007)
Snow  
Snow 0.00 in - - ()
Snow Depth 0.00 in    
Sea Level Pressure  
Sea Level Pressure 29.92 in    
Wind  
Wind Speed 11 mph ()    
Max Wind Speed 25 mph    
Max Gust Speed 41 mph    
Visibility 8.9 miles    
Events Snow    
T = Trace of Precipitation, MM = Missing Value Source: Averaged Metar Reports

Daily Weather History Graph

Daily Weather History Graph

Search for Another Location

Airport or City:

Astronomy

Oct. 20, 2019 Rise Set
Actual Time 7:21 AM MDT 6:18 PM MDT
Civil Twilight 6:53 AM MDT 6:46 PM MDT
Nautical Twilight 6:22 AM MDT 7:17 PM MDT
Astronomical Twilight 5:50 AM MDT 7:49 PM MDT
Moon 11:30 PM MDT (10/20) 1:51 PM MDT (10/20)
Length of Visible Light 11h 52m
Length of Day
10h 57m
Waning Gibbous, 58% of the Moon is Illuminated
Oct 20
Waning Gibbous
Oct 21
Last Quarter
Oct 27
New
Nov 4
First Quarter
Nov 12
Full

Hourly Weather History & Observations

Time (MDT) Temp. Windchill Dew Point Humidity Pressure Visibility Wind Dir Wind Speed Gust Speed Precip Events Conditions
12:12 AM 42.8 °F 34.8 °F 19.4 °F 39% 29.67 in 10.0 mi WNW 17.3 mph 25.3 mph N/A   Overcast
12:53 AM 32.0 °F 18.6 °F 26.6 °F 80% 29.75 in 0.8 mi NW 25.3 mph 41.4 mph N/A Snow Snow
1:12 AM 30.2 °F 17.4 °F 24.8 °F 80% 29.75 in 1.5 mi NW 20.7 mph 33.4 mph N/A Snow Light Snow
1:30 AM 30.2 °F 21.9 °F 24.8 °F 80% 29.78 in 7.0 mi NNW 9.2 mph 28.8 mph N/A Snow Light Snow
1:54 AM 30.2 °F 19.3 °F 23.0 °F 75% 29.78 in 10.0 mi NNW 15.0 mph 25.3 mph N/A   Overcast
2:12 AM 30.2 °F 20.2 °F 23.0 °F 75% 29.80 in 10.0 mi NW 12.7 mph 19.6 mph N/A   Overcast
2:30 AM 30.2 °F - 23.0 °F 75% 29.81 in 7.0 mi Calm Calm - N/A Snow Light Snow
2:54 AM 30.2 °F 23.4 °F 23.0 °F 75% 29.81 in 10.0 mi NNE 6.9 mph - N/A   Overcast
3:12 AM 30.2 °F 26.7 °F 23.0 °F 75% 29.82 in 10.0 mi North 3.5 mph - N/A   Overcast
3:30 AM 30.2 °F - 23.0 °F 75% 29.83 in 10.0 mi Calm Calm - N/A   Overcast
4:12 AM 30.2 °F 25.4 °F 21.2 °F 69% 29.81 in 10.0 mi NW 4.6 mph - N/A   Overcast
4:30 AM 30.2 °F 20.2 °F 21.2 °F 69% 29.80 in 10.0 mi NW 12.7 mph 20.7 mph N/A   Overcast
4:54 AM 30.2 °F - 21.2 °F 69% 29.81 in 10.0 mi Calm Calm - N/A   Overcast
5:12 AM 26.6 °F 16.8 °F 19.4 °F 74% 29.80 in 10.0 mi SSE 10.4 mph - N/A   Mostly Cloudy
5:30 AM 30.2 °F 21.9 °F 19.4 °F 64% 29.82 in 10.0 mi WNW 9.2 mph - N/A   Mostly Cloudy
5:54 AM 30.2 °F 25.4 °F 21.2 °F 69% 29.84 in 10.0 mi WNW 4.6 mph - N/A   Overcast
6:12 AM 26.6 °F 16.8 °F 23.0 °F 86% 29.85 in 1.0 mi WNW 10.4 mph 16.1 mph N/A Snow Light Snow
6:30 AM 26.6 °F 17.5 °F 23.0 °F 86% 29.83 in 2.5 mi SW 9.2 mph - N/A Snow Light Snow
6:53 AM 26.6 °F 20.0 °F 19.4 °F 74% 29.84 in 10.0 mi West 5.8 mph - N/A   Scattered Clouds
7:12 AM 26.6 °F 19.1 °F 21.2 °F 80% 29.83 in 10.0 mi SW 6.9 mph - N/A   Mostly Cloudy
7:29 AM 26.6 °F 16.8 °F 21.2 °F 80% 29.83 in 10.0 mi SW 10.4 mph - N/A   Mostly Cloudy
7:53 AM 26.6 °F 20.0 °F 19.4 °F 74% 29.83 in 10.0 mi West 5.8 mph - N/A   Mostly Cloudy
8:12 AM 28.4 °F 18.5 °F 23.0 °F 80% 29.83 in 10.0 mi West 11.5 mph 21.9 mph N/A   Mostly Cloudy
8:30 AM 30.2 °F 20.8 °F 23.0 °F 75% 29.84 in 10.0 mi West 11.5 mph 18.4 mph N/A   Overcast
8:54 AM 30.2 °F 21.3 °F 23.0 °F 75% 29.85 in 5.0 mi West 10.4 mph 16.1 mph N/A   Haze
9:12 AM 30.2 °F 23.4 °F 23.0 °F 75% 29.86 in 4.0 mi West 6.9 mph - N/A Snow Light Snow
9:48 AM 30.2 °F 20.2 °F 23.0 °F 75% 29.87 in 2.5 mi WSW 12.7 mph - N/A Snow Light Snow
10:12 AM 30.2 °F 19.3 °F 23.0 °F 75% 29.86 in 4.0 mi WSW 15.0 mph 20.7 mph N/A Snow Light Snow
10:30 AM 30.2 °F 21.9 °F 23.0 °F 75% 29.89 in 10.0 mi West 9.2 mph 20.7 mph N/A   Overcast
10:48 AM 32.0 °F 23.6 °F 19.4 °F 60% 29.89 in 10.0 mi WNW 10.4 mph 20.7 mph N/A   Overcast
11:12 AM 32.0 °F 22.5 °F 19.4 °F 60% 29.90 in 10.0 mi WNW 12.7 mph 23.0 mph N/A   Overcast
11:30 AM 32.0 °F 21.6 °F 19.4 °F 60% 29.91 in 10.0 mi NW 15.0 mph 23.0 mph N/A   Overcast
11:48 AM 32.0 °F 21.2 °F 19.4 °F 60% 29.91 in 10.0 mi West 16.1 mph 28.8 mph N/A   Overcast
12:12 PM 32.0 °F 20.8 °F 21.2 °F 64% 29.92 in 10.0 mi West 17.3 mph 24.2 mph N/A   Overcast
12:30 PM 32.0 °F 20.5 °F 21.2 °F 64% 29.93 in 10.0 mi West 18.4 mph 26.5 mph N/A   Overcast
12:48 PM 32.0 °F 23.0 °F 19.4 °F 60% 29.93 in 10.0 mi West 11.5 mph 29.9 mph N/A   Overcast
1:12 PM 33.8 °F 24.3 °F 21.2 °F 60% 29.94 in 10.0 mi West 13.8 mph 25.3 mph N/A   Overcast
1:30 PM 33.8 °F 22.8 °F 19.4 °F 56% 29.94 in 10.0 mi West 18.4 mph 31.1 mph N/A   Overcast
1:48 PM 33.8 °F 21.9 °F 19.4 °F 56% 29.94 in 10.0 mi West 21.9 mph 28.8 mph N/A   Overcast
2:12 PM 33.8 °F 24.3 °F 19.4 °F 56% 29.94 in 10.0 mi WNW 13.8 mph 23.0 mph N/A   Overcast
2:30 PM 33.8 °F 25.3 °F 21.2 °F 60% 29.95 in 10.0 mi West 11.5 mph 25.3 mph N/A   Overcast
2:48 PM 32.0 °F 22.5 °F 21.2 °F 64% 29.95 in 7.0 mi West 12.7 mph 21.9 mph N/A   Overcast
3:12 PM 32.0 °F 23.0 °F 21.2 °F 64% 29.96 in 10.0 mi West 11.5 mph - N/A   Overcast
3:30 PM 33.8 °F 24.8 °F 21.2 °F 60% 29.97 in 10.0 mi WNW 12.7 mph 25.3 mph N/A   Overcast
3:48 PM 32.0 °F 22.5 °F 19.4 °F 60% 29.98 in 10.0 mi WNW 12.7 mph 23.0 mph N/A   Overcast
4:12 PM 32.0 °F 23.0 °F 21.2 °F 64% 30.00 in 7.0 mi WNW 11.5 mph 24.2 mph N/A Snow Light Snow
4:30 PM 32.0 °F 22.1 °F 23.0 °F 69% 30.00 in 7.0 mi WNW 13.8 mph 25.3 mph N/A Snow Light Snow
4:54 PM 32.0 °F 25.6 °F 23.0 °F 69% 30.02 in 10.0 mi WNW 6.9 mph 18.4 mph N/A   Overcast
5:12 PM 30.2 °F 26.7 °F 23.0 °F 75% 30.02 in 10.0 mi NW 3.5 mph - N/A   Overcast
5:30 PM 32.0 °F 25.6 °F 23.0 °F 69% 30.03 in 10.0 mi WNW 6.9 mph - N/A   Overcast
5:54 PM 30.2 °F - 21.2 °F 69% 30.02 in 10.0 mi Calm Calm - N/A   Overcast
6:13 PM 30.2 °F - 21.2 °F 69% 30.03 in 10.0 mi Calm Calm - N/A   Overcast
6:31 PM 32.0 °F 22.1 °F 21.2 °F 64% 30.04 in 10.0 mi West 13.8 mph 21.9 mph N/A   Overcast
6:49 PM 32.0 °F 23.6 °F 21.2 °F 64% 30.04 in 10.0 mi WSW 10.4 mph 19.6 mph N/A   Overcast
7:12 PM 30.2 °F 20.8 °F 23.0 °F 75% 30.05 in 7.0 mi WSW 11.5 mph 17.3 mph N/A Snow Light Snow
7:30 PM 30.2 °F 22.6 °F 23.0 °F 75% 30.06 in 10.0 mi SSW 8.1 mph - N/A   Overcast
7:54 PM 30.2 °F 21.9 °F 21.2 °F 69% 30.06 in 10.0 mi West 9.2 mph - N/A   Overcast
8:12 PM 30.2 °F 19.8 °F 21.2 °F 69% 30.06 in 10.0 mi West 13.8 mph - N/A   Overcast
8:30 PM 30.2 °F 21.3 °F 21.2 °F 69% 30.07 in 10.0 mi WSW 10.4 mph 18.4 mph N/A   Overcast
8:54 PM 30.2 °F 24.3 °F 19.4 °F 64% 30.07 in 10.0 mi WSW 5.8 mph 10.4 mph N/A   Overcast
9:12 PM 30.2 °F 21.9 °F 19.4 °F 64% 30.06 in 10.0 mi WSW 9.2 mph - N/A   Overcast
9:30 PM 30.2 °F 20.8 °F 19.4 °F 64% 30.06 in 10.0 mi WSW 11.5 mph - N/A   Overcast
9:54 PM 30.2 °F 24.3 °F 19.4 °F 64% 30.05 in 10.0 mi WSW 5.8 mph - N/A   Overcast
10:11 PM 30.2 °F 21.3 °F 21.2 °F 69% 30.05 in 10.0 mi West 10.4 mph - N/A   Overcast
10:34 PM 30.2 °F 20.8 °F 21.2 °F 69% 30.05 in 10.0 mi WSW 11.5 mph - N/A   Overcast
10:51 PM 30.2 °F 19.3 °F 21.2 °F 69% 30.04 in 10.0 mi West 15.0 mph 20.7 mph N/A   Mostly Cloudy
11:12 PM 30.2 °F 18.5 °F 21.2 °F 69% 30.04 in 10.0 mi West 17.3 mph 20.7 mph N/A   Overcast
11:30 PM 30.2 °F 19.8 °F 21.2 °F 69% 30.04 in 10.0 mi West 13.8 mph 21.9 mph N/A   Overcast
11:53 PM 30.2 °F 19.8 °F 21.2 °F 69% 30.04 in 10.0 mi West 13.8 mph - N/A   Overcast